DW8241 Weather Reports


Display with metric or nautical units.
time (UTC)temp
F
wind
direction
speed
MPH
gust
MPH
rain 1hr
in
rain 24hr
in
rain mn
in
humidity
%
barometer
mb
20260905080002 64 113 0.0 1.0 0.00 0.01 0.00 98 1013.8
20260905074501 64 132 0.0 1.0 0.00 0.01 0.00 98 1014.2
20260905073110 64 126 0.0 0.0 0.00 0.01 0.00 98 1014.2
20260905071601 64 114 0.0 0.0 0.00 0.01 0.00 98 1014.1
20260905070058 65 142 0.0 1.0 0.00 0.01 0.00 98 1014.2
20260905064556 65 91 0.0 1.0 0.00 0.01 0.00 98 1013.9
20260905063056 65 108 0.0 2.0 0.00 0.01 0.00 97 1013.9
20260905061604 65 129 0.0 1.0 0.00 0.01 0.00 97 1014.1
20260905060105 65 143 0.0 0.0 0.00 0.01 0.00 97 1014.2
20260905054601 65 143 0.0 0.0 0.00 0.01 0.00 96 1014.2
20260905053049 66 139 0.0 2.0 0.00 0.01 0.00 96 1013.9
20260905051604 66 139 0.0 3.0 0.00 0.01 0.00 95 1013.9
20260905050044 66 138 0.0 2.0 0.00 0.01 0.00 94 1013.7
20260905044545 67 136 0.0 2.0 0.00 0.01 0.01 93 1013.7
20260905043043 67 129 0.0 1.0 0.00 0.01 0.01 93 1013.8
20260905041543 68 138 0.0 1.0 0.00 0.01 0.01 91 1014.0
20260905040042 68 111 0.0 1.0 0.00 0.01 0.01 90 1014.0
20260905034542 69 120 0.0 3.0 0.00 0.01 0.01 88 1013.9
20260905033051 69 123 0.0 2.0 0.00 0.01 0.01 87 1014.0
20260905031546 70 110 0.0 2.0 0.00 0.01 0.01 85 1014.0
20260905030043 70 120 0.0 3.0 0.00 0.01 0.01 84 1013.8
20260905024558 70 86 0.0 0.0 0.00 0.01 0.01 84 1013.9
20260905023042 70 86 0.0 0.0 0.00 0.01 0.01 83 1013.8
20260905021540 71 86 0.0 0.0 0.00 0.01 0.01 81 1013.7
20260905020039 72 78 0.0 1.0 0.00 0.01 0.01 80 1013.6
20260905014542 73 78 0.0 0.0 0.00 0.01 0.01 79 1013.5
20260905013052 73 78 0.0 0.0 0.00 0.01 0.01 78 1013.4
20260905011538 75 78 0.0 1.0 0.00 0.01 0.01 77 1013.2
20260905010038 76 91 0.0 0.0 0.00 0.01 0.01 75 1013.1
20260905004536 78 106 0.0 0.0 0.00 0.01 0.01 73 1013.0
20260905003037 80 105 0.0 1.0 0.00 0.01 0.01 73 1013.0
20260905001536 82 84 0.0 4.0 0.00 0.01 0.01 69 1013.0
20260905000035 82 95 0.0 2.0 0.00 0.01 0.01 69 1012.8
20260904234540 83 101 0.0 2.0 0.00 0.01 0.01 68 1012.8
20260904233034 83 94 1.0 3.0 0.00 0.01 0.01 67 1012.6
20260904231533 84 120 0.0 3.0 0.00 0.01 0.01 67 1012.4
20260904230045 84 117 1.0 4.0 0.00 0.01 0.01 65 1012.7
20260904224530 84 162 1.0 3.0 0.00 0.01 0.01 65 1012.9
20260904223030 84 149 2.0 5.0 0.00 0.01 0.01 67 1012.9
20260904221527 84 82 1.0 4.0 0.00 0.01 0.01 69 1012.8
20260904220025 84 142 0.0 3.0 0.00 0.01 0.01 69 1012.7
20260904214523 83 78 2.0 5.0 0.00 0.01 0.01 68 1012.7
20260904213024 83 100 1.0 5.0 0.00 0.01 0.01 70 1012.8
20260904211522 82 109 1.0 5.0 0.00 0.01 0.01 70 1012.8
20260904210018 82 50 1.0 5.0 0.00 0.01 0.01 75 1013.1
20260904204515 81 149 1.0 4.0 0.00 0.01 0.01 73 1013.4
20260904203015 81 103 1.0 6.0 0.00 0.01 0.01 75 1013.4
20260904201524 80 115 2.0 6.0 0.00 0.01 0.01 75 1013.4
20260904200028 80 79 2.0 5.0 0.00 0.26 0.01 75 1013.5
20260904194509 79 44 2.0 6.0 0.00 0.26 0.01 78 1013.6
20260904193010 78 106 2.0 7.0 0.00 0.26 0.01 79 1013.6
20260904191510 78 67 2.0 5.0 0.00 0.26 0.01 79 1013.7
20260904190002 77 50 0.0 5.0 0.00 0.98 0.01 82 1013.9
20260904184605 76 96 0.0 4.0 0.00 0.98 0.01 81 1014.1
20260904183057 75 9 3.0 6.0 0.00 0.98 0.01 85 1014.2
20260904181553 74 85 2.0 7.0 0.00 0.98 0.01 86 1014.2
20260904180053 74 80 2.0 6.0 0.00 0.98 0.01 84 1014.1
20260904174550 73 72 2.0 8.0 0.00 0.99 0.01 87 1014.1
20260904173047 71 8 2.0 11.0 0.00 0.99 0.01 88 1014.0
20260904171610 70 1 5.0 9.0 0.00 0.99 0.01 90 1013.9
20260904170039 69 341 3.0 6.0 0.00 0.99 0.01 92 1014.0
20260904164536 68 349 4.0 7.0 0.00 1.00 0.01 93 1014.1
20260904163046 66 23 1.0 6.0 0.00 1.00 0.01 97 1014.1
20260904161528 65 311 4.0 6.0 0.00 1.00 0.01 98 1014.1
20260904160027 64 301 4.0 7.0 0.00 1.00 0.01 99 1014.0
20260904154525 64 6 2.0 4.0 0.00 1.00 0.01 100 1013.9
20260904153031 64 15 2.0 4.0 0.00 1.00 0.01 100 1013.6
20260904151535 64 302 0.0 2.0 0.00 1.00 0.01 100 1013.8
20260904150023 63 257 0.0 2.0 0.00 1.00 0.01 100 1013.8
20260904144521 63 282 0.0 1.0 0.00 1.00 0.01 100 1013.9
20260904143021 62 302 0.0 0.0 0.00 1.00 0.01 100 1013.9
20260904141520 62 293 0.0 0.0 0.00 1.00 0.01 100 1013.8
20260904140018 62 89 0.0 0.0 0.00 1.00 0.01 100 1013.5
20260904134521 62 330 0.0 1.0 0.00 1.00 0.01 100 1013.5
20260904133016 61 46 0.0 4.0 0.01 1.00 0.01 100 1013.0
20260904131511 60 46 0.0 3.0 0.01 1.00 0.01 100 1012.5
20260904130010 59 54 0.0 0.0 0.01 1.00 0.01 100 1012.7
20260904124508 58 65 0.0 2.0 0.01 1.00 0.01 100 1012.4
20260904123006 57 22 2.0 6.0 0.00 0.99 0.00 100 1012.1
20260904121506 57 34 0.0 2.0 0.00 0.99 0.00 100 1012.0
20260904120006 57 31 1.0 4.0 0.00 0.99 0.00 100 1011.9
20260904114504 56 28 0.0 3.0 0.00 0.99 0.00 100 1011.9
20260904113002 58 37 0.0 3.0 0.00 0.99 0.00 100 1012.0
20260904111502 58 13 0.0 2.0 0.00 0.99 0.00 100 1012.0
20260904110100 57 284 0.0 1.0 0.00 0.99 0.00 100 1012.0
20260904104558 58 13 0.0 0.0 0.00 0.99 0.00 100 1012.0
20260904103057 58 13 0.0 1.0 0.00 0.99 0.00 100 1011.8
20260904101554 58 13 0.0 2.0 0.00 0.99 0.00 100 1011.6
20260904100053 58 353 0.0 1.0 0.00 0.99 0.00 100 1011.6
20260904094554 58 293 0.0 2.0 0.00 0.99 0.00 100 1011.4
20260904093049 59 315 0.0 3.0 0.00 0.99 0.00 100 1011.2
20260904091548 59 297 0.0 2.0 0.00 0.99 0.00 100 1011.1
20260904090046 59 321 0.0 1.0 0.00 0.99 0.00 100 1010.9
20260904084555 59 320 0.0 1.0 0.00 0.99 0.00 100 1010.9
20260904083044 59 299 0.0 1.0 0.00 0.99 0.00 99 1010.8
20260904081541 61 13 0.0 1.0 0.00 0.99 0.00 99 1010.5